FW6002 Weather Reports


Display with metric or nautical units.
time (UTC)temp
F
wind
direction
speed
MPH
gust
MPH
rain 1hr
in
rain 24hr
in
rain mn
in
humidity
%
barometer
mb
20260509105055 68 0 0.0 0.0 0.00 0.06 0.00 93 1009.8
20260509104608 68 0 0.0 0.0 0.00 0.06 0.00 92 1009.5
20260509104054 68 0 0.0 1.0 0.00 0.06 0.00 93 1009.7
20260509103556 68 0 0.0 2.0 0.00 0.06 0.00 93 1009.4
20260509103054 68 0 0.0 2.0 0.00 0.06 0.00 93 1009.4
20260509102554 68 32 0.0 2.0 0.00 0.06 0.00 93 1009.2
20260509102055 68 0 0.0 2.0 0.00 0.06 0.00 93 1009.2
20260509101554 68 0 0.0 5.0 0.00 0.06 0.00 93 1009.3
20260509101059 68 186 0.0 5.0 0.00 0.06 0.00 93 1008.1
20260509100555 68 320 0.0 5.0 0.00 0.06 0.00 93 1008.9
20260509100054 68 0 0.0 2.0 0.00 0.06 0.00 93 1008.3
20260509095557 68 0 0.0 2.0 0.00 0.06 0.00 93 1007.7
20260509095055 69 0 0.0 4.0 0.00 0.06 0.00 93 1007.6
20260509094610 69 0 0.0 4.0 0.00 0.06 0.00 93 1007.1
20260509094056 69 165 0.0 5.0 0.00 0.06 0.00 93 1006.7
20260509093555 69 0 0.0 5.0 0.00 0.06 0.00 93 1007.1
20260509093057 69 294 1.0 5.0 0.00 0.06 0.00 93 1006.8
20260509092557 69 242 1.0 5.0 0.00 0.06 0.00 93 1006.5
20260509092054 69 347 0.0 5.0 0.00 0.06 0.00 93 1006.8
20260509091556 69 0 1.0 5.0 0.00 0.06 0.00 93 1007.0
20260509091056 69 75 1.0 5.0 0.00 0.06 0.00 93 1007.0
20260509090555 69 285 2.0 5.0 0.00 0.06 0.00 93 1007.1
20260509085554 69 0 1.0 7.0 0.00 0.06 0.00 93 1008.1
20260509085055 68 45 2.0 7.0 0.00 0.06 0.00 93 1008.5
20260509084604 68 0 0.0 9.0 0.00 0.06 0.00 93 1008.4
20260509084055 68 49 2.0 9.0 0.00 0.06 0.00 93 1008.6
20260509083558 68 0 0.0 5.0 0.00 0.06 0.00 93 1008.7
20260509083052 68 210 1.0 5.0 0.00 0.06 0.00 93 1008.8
20260509082555 68 199 0.0 6.0 0.00 0.06 0.00 93 1008.8
20260509082055 68 196 1.0 6.0 0.00 0.06 0.00 93 1009.0
20260509081557 68 183 1.0 6.0 0.00 0.06 0.00 93 1008.9
20260509081055 68 76 2.0 6.0 0.00 0.06 0.00 93 1009.0
20260509080555 68 145 1.0 5.0 0.00 0.06 0.00 93 1009.2
20260509080057 68 71 1.0 5.0 0.00 0.06 0.00 93 1009.4
20260509075555 68 92 1.0 4.0 0.00 0.06 0.00 93 1009.7
20260509075056 68 196 2.0 4.0 0.00 0.06 0.00 93 1009.8
20260509074601 68 0 0.0 3.0 0.00 0.06 0.00 93 1010.1
20260509074057 68 0 0.0 3.0 0.00 0.06 0.00 93 1010.5
20260509073555 68 192 1.0 2.0 0.00 0.06 0.00 93 1011.1
20260509073054 68 102 0.0 1.0 0.00 0.06 0.00 93 1011.4
20260509072556 68 0 0.0 2.0 0.00 0.06 0.00 93 1011.5
20260509072055 68 0 0.0 2.0 0.00 0.06 0.00 93 1011.4
20260509071607 68 0 0.0 2.0 0.00 0.06 0.00 93 1011.8
20260509071056 68 0 0.0 1.0 0.00 0.06 0.00 93 1011.7
20260509070555 68 302 0.0 3.0 0.00 0.06 0.00 93 1011.9
20260509070106 68 0 0.0 4.0 0.00 0.06 0.00 93 1012.3
20260509065555 68 39 0.0 4.0 0.00 0.06 0.00 93 1012.4
20260509065055 68 325 0.0 4.0 0.00 0.06 0.00 93 1012.4
20260509064559 68 0 0.0 1.0 0.00 0.06 0.00 93 1012.3
20260509064056 68 0 0.0 1.0 0.00 0.06 0.00 93 1012.0
20260509063556 68 0 0.0 1.0 0.00 0.06 0.00 93 1011.7
20260509063057 68 0 0.0 2.0 0.00 0.06 0.00 93 1011.6
20260509062556 68 0 0.0 2.0 0.00 0.06 0.00 93 1011.5
20260509062055 67 0 0.0 2.0 0.00 0.06 0.00 93 1011.7
20260509061607 67 0 0.0 1.0 0.00 0.06 0.00 93 1011.6
20260509061054 67 0 0.0 1.0 0.00 0.06 0.00 93 1011.6
20260509060556 67 0 0.0 1.0 0.00 0.06 0.00 92 1011.4
20260509060101 67 0 0.0 0.0 0.00 0.06 0.00 93 1010.7
20260509055555 67 0 0.0 0.0 0.00 0.06 0.00 92 1010.2
20260509055055 67 0 0.0 0.0 0.00 0.06 0.00 92 1010.2
20260509054616 67 0 0.0 0.0 0.00 0.06 0.00 92 1010.2
20260509054055 67 0 0.0 0.0 0.00 0.06 0.00 92 1010.4
20260509053556 68 0 0.0 0.0 0.00 0.06 0.00 92 1010.2
20260509053143 68 0 0.0 0.0 0.00 0.06 0.00 91 1010.3
20260509052558 68 0 0.0 1.0 0.00 0.06 0.00 92 1010.6
20260509052055 68 0 0.0 1.0 0.00 0.06 0.00 92 1010.6
20260509051559 68 0 0.0 0.0 0.00 0.06 0.00 91 1010.6
20260509051055 68 0 0.0 0.0 0.00 0.06 0.00 91 1010.6
20260509050555 68 0 0.0 0.0 0.00 0.06 0.00 91 1010.6
20260509050056 68 0 0.0 0.0 0.00 0.06 0.00 91 1010.6
20260509045555 68 0 0.0 1.0 0.00 0.06 0.06 90 1010.5
20260509045055 69 0 0.0 1.0 0.00 0.06 0.06 90 1010.2
20260509044557 69 0 0.0 1.0 0.00 0.06 0.06 90 1009.8
20260509044055 69 0 0.0 1.0 0.00 0.06 0.06 90 1009.8
20260509043554 69 0 0.0 3.0 0.00 0.06 0.06 90 1009.9
20260509043057 70 0 0.0 3.0 0.00 0.06 0.06 89 1009.9
20260509042555 70 0 1.0 3.0 0.00 0.06 0.06 89 1010.0
20260509042055 70 0 0.0 3.0 0.00 0.06 0.06 89 1009.8
20260509041559 70 0 0.0 3.0 0.00 0.06 0.06 89 1009.4
20260509041055 70 217 0.0 5.0 0.00 0.06 0.06 89 1009.4
20260509040555 70 0 1.0 5.0 0.00 0.06 0.06 89 1009.6
20260509040112 70 69 0.0 3.0 0.00 0.06 0.06 89 1009.6
20260509035555 70 0 1.0 3.0 0.00 0.06 0.06 89 1009.6
20260509035059 70 0 1.0 3.0 0.00 0.06 0.06 89 1009.6
20260509034619 70 0 0.0 3.0 0.00 0.06 0.06 88 1009.4
20260509034054 70 0 0.0 3.0 0.00 0.06 0.06 88 1009.5
20260509033555 70 69 0.0 3.0 0.00 0.06 0.06 88 1009.3
20260509033055 71 0 0.0 2.0 0.00 0.06 0.06 88 1009.3
20260509032557 71 0 0.0 2.0 0.00 0.06 0.06 88 1009.5
20260509032054 71 0 0.0 2.0 0.00 0.06 0.06 87 1009.5
20260509031555 71 0 1.0 3.0 0.00 0.06 0.06 87 1009.4
20260509031055 71 0 0.0 4.0 0.00 0.06 0.06 87 1009.4
20260509030556 71 61 1.0 4.0 0.00 0.06 0.06 87 1009.1
20260509030109 72 58 0.0 3.0 0.00 0.06 0.06 87 1009.2
20260509025555 72 0 0.0 2.0 0.00 0.06 0.06 87 1009.3
20260509025055 72 0 0.0 4.0 0.00 0.06 0.06 86 1009.0
20260509024552 72 0 0.0 4.0 0.00 0.06 0.06 86 1008.8
20260509024055 72 140 0.0 4.0 0.00 0.06 0.06 86 1008.9
20260509023558 72 178 0.0 3.0 0.00 0.06 0.06 87 1008.7
20260509023054 72 223 0.0 4.0 0.00 0.06 0.06 87 1008.8
20260509022555 72 89 0.0 4.0 0.00 0.06 0.06 87 1008.7
20260509022055 72 0 0.0 4.0 0.00 0.06 0.06 87 1008.8
20260509021559 72 0 0.0 1.0 0.00 0.06 0.06 87 1008.9
20260509021054 72 0 0.0 1.0 0.00 0.06 0.06 86 1008.9
20260509020554 72 0 0.0 1.0 0.00 0.06 0.06 86 1008.8
20260509020055 72 0 0.0 1.0 0.00 0.06 0.06 86 1008.8
20260509015554 72 0 0.0 1.0 0.00 0.06 0.06 85 1008.8
20260509015055 72 77 0.0 2.0 0.00 0.06 0.06 85 1008.8
20260509014554 72 0 0.0 2.0 0.00 0.06 0.06 85 1008.8
20260509014054 73 94 0.0 2.0 0.00 0.06 0.06 85 1008.6
20260509013554 73 35 0.0 2.0 0.00 0.06 0.06 85 1008.6
20260509013109 73 0 0.0 1.0 0.00 0.06 0.06 85 1008.6
20260509012554 73 0 0.0 1.0 0.00 0.06 0.06 84 1008.7
20260509012054 73 0 0.0 1.0 0.00 0.06 0.06 84 1008.5
20260509011608 73 0 0.0 1.0 0.00 0.06 0.06 84 1008.6
20260509011055 73 0 0.0 1.0 0.00 0.06 0.06 83 1008.4
20260509010555 73 0 0.0 1.0 0.00 0.06 0.06 83 1008.1
20260509010053 74 0 0.0 2.0 0.00 0.06 0.06 83 1008.2
20260509005555 74 0 0.0 2.0 0.00 0.06 0.06 82 1008.1
20260509005054 74 0 0.0 2.0 0.00 0.06 0.06 82 1008.1
20260509004607 74 0 0.0 2.0 0.00 0.06 0.06 82 1008.0
20260509004055 74 0 0.0 2.0 0.00 0.06 0.06 82 1008.0
20260509003559 74 0 0.0 2.0 0.00 0.06 0.06 82 1008.0
20260509003123 74 0 0.0 2.0 0.00 0.06 0.06 81 1007.8
20260509002554 75 0 0.0 1.0 0.00 0.06 0.06 81 1008.0
20260509002055 75 0 0.0 2.0 0.00 0.06 0.06 81 1007.8
20260509001605 75 0 0.0 2.0 0.00 0.06 0.06 81 1008.0
20260509001056 75 138 0.0 1.0 0.00 0.06 0.06 81 1008.0
20260509000558 75 0 0.0 1.0 0.00 0.06 0.06 81 1008.1
20260509000111 75 0 0.0 1.0 0.00 0.06 0.06 81 1008.1
20260508235555 75 0 0.0 1.0 0.00 0.06 0.06 80 1008.2
20260508235058 75 0 0.0 2.0 0.00 0.06 0.06 80 1008.1
20260508234553 75 0 0.0 2.0 0.00 0.06 0.06 80 1008.1
20260508234058 75 39 0.0 2.0 0.00 0.06 0.06 79 1008.1
20260508233555 75 0 0.0 3.0 0.00 0.06 0.06 79 1008.2
20260508233054 75 187 0.0 3.0 0.00 0.06 0.06 78 1008.1
20260508232555 75 0 0.0 4.0 0.00 0.06 0.06 78 1007.9
20260508232054 76 220 1.0 4.0 0.00 0.06 0.06 78 1008.0
20260508231559 76 0 1.0 4.0 0.00 0.06 0.06 78 1008.1
20260508231055 76 90 1.0 4.0 0.00 0.06 0.06 78 1007.7
20260508230556 76 59 0.0 4.0 0.00 0.06 0.06 77 1007.9
20260508225554 76 148 0.0 4.0 0.00 0.06 0.06 78 1008.0
20260508225056 76 196 1.0 4.0 0.00 0.06 0.06 77 1007.8
20260508224606 76 167 0.0 4.0 0.00 0.06 0.06 77 1008.1
20260508224055 75 0 1.0 6.0 0.00 0.06 0.06 78 1008.0
20260508223555 75 58 1.0 6.0 0.00 0.06 0.06 79 1008.1
20260508223055 74 0 1.0 6.0 0.00 0.06 0.06 79 1008.1
20260508222554 74 55 0.0 5.0 0.00 0.06 0.06 79 1008.3
20260508222055 74 40 1.0 3.0 0.00 0.06 0.06 79 1008.4
20260508221554 74 0 1.0 3.0 0.00 0.06 0.06 79 1008.4
20260508221055 74 164 1.0 5.0 0.00 0.06 0.06 78 1008.6
20260508220554 74 161 1.0 5.0 0.00 0.06 0.06 77 1008.5
20260508220059 75 42 1.0 4.0 0.00 0.06 0.06 77 1008.7
20260508215554 75 0 1.0 4.0 0.00 0.06 0.06 77 1008.7
20260508215100 75 233 0.0 4.0 0.00 0.06 0.06 78 1008.7
20260508214554 75 60 1.0 3.0 0.00 0.06 0.06 79 1008.7
20260508214056 74 11 0.0 2.0 0.00 0.06 0.06 80 1008.9
20260508213555 73 61 0.0 5.0 0.00 0.06 0.06 79 1008.9
20260508213102 73 169 0.0 5.0 0.00 0.06 0.06 79 1009.0
20260508212555 74 73 0.0 4.0 0.00 0.06 0.06 78 1009.0
20260508212055 74 196 0.0 4.0 0.00 0.06 0.06 77 1009.0
20260508211558 74 184 1.0 4.0 0.00 0.06 0.06 78 1009.1
20260508211057 73 214 1.0 5.0 0.00 0.06 0.06 79 1009.3
20260508210555 73 170 1.0 5.0 0.00 0.06 0.06 79 1009.5
20260508210057 73 67 2.0 5.0 0.00 0.06 0.06 78 1009.5
20260508205554 73 73 0.0 5.0 0.00 0.06 0.06 80 1009.6
20260508205056 72 0 1.0 5.0 0.00 0.06 0.06 79 1009.8
20260508204600 71 47 1.0 4.0 0.00 0.06 0.06 79 1009.7
20260508204055 72 110 0.0 4.0 0.00 0.06 0.06 79 1009.7
20260508203557 72 0 0.0 4.0 0.00 0.06 0.06 81 1009.9
20260508203057 71 182 1.0 7.0 0.00 0.06 0.06 80 1010.0
20260508202556 70 96 1.0 7.0 0.00 0.06 0.06 81 1010.0
20260508202055 71 39 1.0 6.0 0.00 0.06 0.06 80 1010.0
20260508201610 70 64 1.0 6.0 0.00 0.06 0.06 84 1009.5
20260508201055 69 84 1.0 7.0 0.01 0.06 0.06 83 1009.7
20260508200555 68 190 2.0 7.0 0.06 0.06 0.06 83 1009.6
20260508200106 69 134 2.0 9.0 0.06 0.06 0.06 86 1009.5
20260508195555 68 164 1.0 9.0 0.06 0.06 0.06 88 1009.7
20260508195056 67 111 1.0 5.0 0.06 0.06 0.06 89 1009.9
20260508194600 66 0 0.0 2.0 0.06 0.06 0.06 88 1010.4
20260508194057 66 0 1.0 2.0 0.06 0.06 0.06 89 1010.6
20260508193555 66 0 0.0 1.0 0.06 0.06 0.06 89 1010.8
20260508193106 66 0 0.0 1.0 0.06 0.06 0.06 89 1011.0
20260508192555 66 0 0.0 2.0 0.06 0.06 0.06 88 1011.5
20260508192056 66 0 0.0 3.0 0.06 0.06 0.06 87 1011.6
20260508191555 67 0 0.0 5.0 0.06 0.06 0.06 85 1011.3
20260508191055 68 0 0.0 5.0 0.05 0.05 0.05 82 1011.6
20260508190556 70 76 1.0 5.0 0.00 0.00 0.00 76 1011.8
20260508190100 70 219 0.0 4.0 0.00 0.00 0.00 75 1011.8
20260508185555 71 330 1.0 4.0 0.00 0.00 0.00 74 1011.6
20260508185055 72 171 1.0 7.0 0.00 0.00 0.00 74 1011.4
20260508184609 72 233 2.0 7.0 0.00 0.00 0.00 75 1011.4
20260508184055 72 105 1.0 7.0 0.00 0.00 0.00 74 1011.4
20260508183554 72 49 1.0 4.0 0.00 0.00 0.00 73 1011.4
20260508183105 72 75 0.0 5.0 0.00 0.00 0.00 74 1011.5
20260508182553 72 81 1.0 5.0 0.00 0.00 0.00 73 1011.7
20260508182053 72 57 1.0 5.0 0.00 0.00 0.00 74 1012.0
20260508181559 71 85 1.0 4.0 0.00 0.00 0.00 74 1012.1
20260508181055 71 24 1.0 4.0 0.00 0.00 0.00 73 1012.1
20260508180554 71 55 1.0 4.0 0.00 0.00 0.00 73 1012.2
20260508180059 71 119 1.0 5.0 0.00 0.00 0.00 75 1012.2
20260508175555 70 189 1.0 5.0 0.00 0.00 0.00 74 1012.3
20260508175054 70 96 2.0 6.0 0.00 0.00 0.00 73 1012.8
20260508174605 71 51 1.0 6.0 0.00 0.00 0.00 72 1012.7
20260508174053 71 223 2.0 6.0 0.00 0.00 0.00 70 1012.8
20260508173555 72 49 2.0 6.0 0.00 0.00 0.00 69 1012.7
20260508173054 73 170 1.0 5.0 0.00 0.00 0.00 71 1012.6
20260508172555 73 207 1.0 4.0 0.00 0.00 0.00 70 1012.3
20260508172054 73 180 0.0 5.0 0.00 0.00 0.00 70 1012.3
20260508171558 74 134 1.0 5.0 0.00 0.00 0.00 67 1012.2
20260508171056 73 87 0.0 4.0 0.00 0.00 0.00 69 1012.2
20260508170556 72 0 1.0 5.0 0.00 0.00 0.00 70 1012.3
20260508170056 72 0 1.0 5.0 0.00 0.00 0.00 71 1012.2
20260508165553 72 0 0.0 2.0 0.00 0.00 0.00 76 1012.4
20260508165055 71 130 0.0 4.0 0.00 0.00 0.00 75 1012.7
20260508164558 70 180 0.0 4.0 0.00 0.00 0.00 74 1012.7
20260508164055 70 68 1.0 4.0 0.00 0.00 0.00 73 1013.2
20260508163554 70 0 1.0 4.0 0.00 0.00 0.00 74 1013.2
20260508163114 70 112 0.0 3.0 0.00 0.00 0.00 75 1013.2
20260508162554 69 243 1.0 3.0 0.00 0.00 0.00 73 1013.3
20260508162055 69 109 0.0 3.0 0.00 0.00 0.00 77 1013.3
20260508161556 68 130 0.0 3.0 0.00 0.00 0.00 75 1013.4
20260508161054 67 167 0.0 4.0 0.00 0.00 0.00 77 1013.5
20260508160554 67 26 0.0 4.0 0.00 0.00 0.00 76 1013.6
20260508160055 67 0 0.0 2.0 0.00 0.00 0.00 76 1013.5
20260508155552 67 103 0.0 2.0 0.00 0.00 0.00 76 1013.6
20260508155059 66 0 0.0 3.0 0.00 0.00 0.00 76 1013.6
20260508154558 66 0 0.0 3.0 0.00 0.00 0.00 77 1013.6
20260508154054 66 75 0.0 3.0 0.00 0.00 0.00 76 1013.8
20260508153554 66 0 0.0 5.0 0.00 0.00 0.00 76 1013.7
20260508153058 66 0 0.0 5.0 0.00 0.00 0.00 77 1013.9
20260508152555 65 117 1.0 5.0 0.00 0.00 0.00 78 1013.8
20260508152055 65 150 0.0 2.0 0.00 0.00 0.00 80 1014.0
20260508151554 65 0 0.0 2.0 0.00 0.00 0.00 80 1013.8
20260508151055 65 131 0.0 2.0 0.00 0.00 0.00 79 1014.0
20260508150600 64 151 0.0 2.0 0.00 0.00 0.00 79 1014.2
20260508150057 64 0 0.0 2.0 0.00 0.00 0.00 80 1014.3
20260508145555 64 182 0.0 2.0 0.00 0.00 0.00 80 1014.4
20260508145058 64 0 0.0 3.0 0.00 0.00 0.00 81 1014.3
20260508144555 64 0 0.0 3.0 0.00 0.00 0.00 80 1014.4
20260508144055 64 0 0.0 2.0 0.00 0.00 0.00 80 1014.5
20260508143555 64 0 0.0 2.0 0.00 0.00 0.00 80 1014.4
20260508143058 64 181 0.0 2.0 0.00 0.00 0.00 80 1014.4
20260508142555 64 0 0.0 2.0 0.00 0.00 0.00 80 1014.4
20260508142100 64 0 0.0 2.0 0.00 0.00 0.00 80 1014.3
20260508141603 64 0 0.0 3.0 0.00 0.00 0.00 80 1014.3
20260508141056 64 0 0.0 3.0 0.00 0.00 0.00 81 1014.5
20260508140555 64 63 0.0 3.0 0.00 0.00 0.00 81 1014.4
20260508140054 64 0 0.0 2.0 0.00 0.00 0.00 82 1014.4
20260508135556 63 0 0.0 1.0 0.00 0.00 0.00 84 1014.3
20260508135055 63 0 0.0 1.0 0.00 0.00 0.00 87 1014.1
20260508134600 62 0 0.0 1.0 0.00 0.00 0.00 87 1013.8
20260508134055 62 0 0.0 1.0 0.00 0.00 0.00 88 1013.8
20260508133557 61 0 0.0 2.0 0.00 0.00 0.00 88 1014.1
20260508133106 61 0 0.0 2.0 0.00 0.00 0.00 89 1014.1
20260508132555 61 0 0.0 0.0 0.00 0.00 0.00 90 1014.2
20260508132055 60 0 0.0 0.0 0.00 0.00 0.00 91 1014.3
20260508131558 60 0 0.0 0.0 0.00 0.00 0.00 91 1014.3
20260508131059 60 0 0.0 0.0 0.00 0.00 0.00 92 1014.3
20260508130555 59 0 0.0 0.0 0.00 0.00 0.00 91 1014.5
20260508130107 59 0 0.0 0.0 0.00 0.00 0.00 92 1014.4
20260508125556 59 0 0.0 0.0 0.00 0.00 0.00 92 1014.4
20260508125055 58 0 0.0 0.0 0.00 0.00 0.00 92 1014.5
20260508124557 58 0 0.0 0.0 0.00 0.00 0.00 92 1014.5
20260508124055 57 0 0.0 0.0 0.00 0.00 0.00 92 1014.4
20260508123557 57 0 0.0 0.0 0.00 0.00 0.00 92 1014.3
20260508123056 56 0 0.0 0.0 0.00 0.00 0.00 92 1014.3
20260508122555 56 0 0.0 0.0 0.00 0.00 0.00 91 1014.4
20260508122055 56 0 0.0 0.0 0.00 0.00 0.00 91 1014.5
20260508121555 56 0 0.0 0.0 0.00 0.00 0.00 91 1014.5
20260508121056 56 0 0.0 1.0 0.00 0.00 0.00 91 1014.5
20260508120555 56 0 0.0 1.0 0.00 0.00 0.00 91 1014.4
20260508120056 56 0 0.0 0.0 0.00 0.00 0.00 91 1014.3
20260508115556 56 0 0.0 0.0 0.00 0.00 0.00 91 1014.4
20260508115055 56 0 0.0 0.0 0.00 0.00 0.00 91 1014.5
20260508114556 56 0 0.0 0.0 0.00 0.00 0.00 91 1014.3
20260508114055 56 0 0.0 0.0 0.00 0.00 0.00 91 1014.4
20260508113556 56 0 0.0 0.0 0.00 0.00 0.00 91 1014.6
20260508113107 56 0 0.0 0.0 0.00 0.00 0.00 91 1014.8
20260508112555 56 0 0.0 0.0 0.00 0.00 0.00 91 1014.6
20260508112055 55 0 0.0 0.0 0.00 0.00 0.00 91 1014.5
20260508111553 55 0 0.0 0.0 0.00 0.00 0.00 91 1014.7
20260508111055 55 0 0.0 0.0 0.00 0.00 0.00 91 1014.7
20260508110555 55 0 0.0 0.0 0.00 0.00 0.00 91 1014.7
20260508110118 55 0 0.0 0.0 0.00 0.00 0.00 91 1014.6
20260508105555 55 0 0.0 1.0 0.00 0.00 0.00 91 1014.3